Date String (YYYY-MM-DD hh:mm:ss) UTC,Instrument flags,Ambient pressure (hPa),Sample flow (lpm),Bypass flow (lpm),Sample temperature (°C),Ambient temperature (°C),ASC tube jacket temperature (°C),LED temperature (°C),Box temperature (°C),Sample RH (%),Span deviation,Mass concentration (μg/m³),Mass concentration (μg/m³),Mass concentration (μg/m³)
DateTimeUTC,F1_M11,P_M11,Q1_M11,Q2_M11,T1_M11,T2_M11,T3_M11,T4_M11,T5_M11,U1_M11,ZSPAN_M11,X2_M11,X0_M11,X1_M11
2023-04-06 07:00:00,,0833.3,5.00,0.00,22.4,20.8,00.0,30.8,23.8,08.5,0000.0,0003.35,0006.56,0003.12
2023-04-06 07:01:00,,0833.3,4.99,0.00,22.4,20.7,00.0,30.8,23.8,08.6,0000.0,0003.39,0006.64,0003.16
2023-04-06 07:02:00,,0833.3,5.00,0.00,22.3,20.6,00.0,30.8,23.7,08.7,0000.0,0003.40,0006.71,0003.17
2023-04-06 07:03:00,,0833.3,5.01,0.00,22.3,20.5,00.0,30.8,23.7,08.6,0000.0,0003.37,0005.82,0003.14
2023-04-06 07:04:00,,0833.4,5.02,0.00,22.4,21.2,00.0,30.7,24.1,08.8,0000.0,0003.32,0005.08,0003.10
2023-04-06 07:05:00,,0833.4,4.99,0.00,22.5,22.4,00.0,30.7,24.4,08.7,0000.0,0003.30,0004.60,0003.07
2023-04-06 07:06:00,,0833.4,5.00,0.00,22.6,23.1,00.0,30.7,24.6,08.6,0000.0,0003.29,0004.97,0003.02
2023-04-06 07:07:00,,0833.4,5.00,0.00,22.7,22.8,00.0,30.8,24.4,08.5,0000.0,0003.25,0004.98,0002.95
2023-04-06 07:08:00,,0833.4,5.01,0.00,22.7,22.4,00.0,30.8,24.3,08.4,0000.0,0003.21,0004.88,0002.87
2023-04-06 07:09:00,,0833.3,5.00,0.00,22.6,22.1,00.0,30.9,24.2,08.3,0000.0,0003.15,0004.74,0002.77
2023-04-06 07:10:00,,0833.2,5.00,0.00,22.6,21.8,00.0,30.9,24.1,08.3,0000.0,0003.07,0004.64,0002.65
2023-04-06 07:11:00,,0833.3,4.99,0.00,22.6,21.6,00.0,30.9,24.1,08.4,0000.0,0002.91,0004.78,0002.53
2023-04-06 07:12:00,,0833.2,5.00,0.00,22.6,21.4,00.0,30.9,24.1,08.4,0000.0,0002.79,0006.14,0002.41
2023-04-06 07:13:00,,0833.2,5.00,0.00,22.5,21.3,00.0,30.9,24.0,08.4,0000.0,0002.68,0005.99,0002.33
2023-04-06 07:14:00,,0833.2,5.01,0.00,22.5,21.2,00.0,30.9,24.0,08.4,0000.0,0002.68,0005.94,0002.33
2023-04-06 07:15:00,,0833.2,5.00,0.00,22.5,21.1,00.0,30.9,24.0,08.4,0000.0,0002.66,0005.84,0002.33
2023-04-06 07:16:00,,0833.2,4.99,0.00,22.5,21.0,00.0,30.9,24.0,08.4,0000.0,0002.63,0005.55,0002.31
2023-04-06 07:17:00,,0833.2,5.01,0.00,22.5,20.9,00.0,30.9,23.9,08.3,0000.0,0002.63,0005.18,0002.30
2023-04-06 07:18:00,,0833.2,5.01,0.00,22.4,20.8,00.0,30.9,23.9,08.2,0000.0,0002.66,0005.18,0002.30
2023-04-06 07:19:00,,0833.2,5.00,0.00,22.4,20.7,00.0,30.8,23.9,08.2,0000.0,0002.66,0005.16,0002.31
2023-04-06 07:20:00,,0833.2,4.99,0.00,22.4,20.7,00.0,30.8,23.9,08.1,0000.0,0002.71,0005.24,0002.35
2023-04-06 07:21:00,,0833.2,5.01,0.00,22.5,21.3,00.0,30.8,24.2,08.1,0000.0,0002.77,0005.42,0002.38
2023-04-06 07:22:00,,0833.2,5.00,0.00,22.6,22.4,00.0,30.8,24.6,08.0,0000.0,0002.78,0005.22,0002.40
2023-04-06 07:23:00,,0833.2,5.00,0.00,22.7,23.0,00.0,30.8,24.7,08.0,0000.0,0002.80,0003.77,0002.43
2023-04-06 07:24:00,,0833.2,4.98,0.00,22.8,22.9,00.0,30.9,24.6,07.9,0000.0,0002.86,0004.34,0002.47
2023-04-06 07:25:00,,0833.2,5.00,0.00,22.8,22.6,00.0,30.9,24.4,07.9,0000.0,0002.95,0005.35,0002.50
2023-04-06 07:26:00,,0833.2,5.00,0.00,22.7,22.2,00.0,30.9,24.3,07.9,0000.0,0003.01,0005.63,0002.53
2023-04-06 07:27:00,,0833.2,5.00,0.00,22.7,21.9,00.0,31.0,24.2,07.9,0000.0,0003.05,0005.70,0002.57
2023-04-06 07:28:00,,0833.2,5.00,0.00,22.7,21.6,00.0,31.0,24.2,07.9,0000.0,0003.07,0005.66,0002.61
2023-04-06 07:29:00,,0833.2,5.00,0.00,22.6,21.4,00.0,31.0,24.1,08.0,0000.0,0003.11,0005.74,0002.67
2023-04-06 07:30:00,,0833.2,5.00,0.00,22.6,21.1,00.0,30.9,24.0,08.0,0000.0,0003.15,0005.84,0002.71
2023-04-06 07:31:00,,0833.2,5.00,0.00,22.6,21.0,00.0,30.9,24.0,08.0,0000.0,0003.16,0005.87,0002.73
2023-04-06 07:32:00,,0833.2,4.99,0.00,22.6,20.8,00.0,30.9,23.9,07.9,0000.0,0003.16,0005.80,0002.74
2023-04-06 07:33:00,,0833.2,5.00,0.00,22.5,20.7,00.0,30.9,23.9,07.9,0000.0,0003.18,0005.80,0002.77
2023-04-06 07:34:00,,0833.1,5.00,0.00,22.5,20.6,00.0,30.9,23.9,07.9,0000.0,0003.20,0005.73,0002.80
2023-04-06 07:35:00,,0833.2,5.00,0.00,22.4,20.5,00.0,30.9,23.8,07.9,0000.0,0003.21,0005.26,0002.83
2023-04-06 07:36:00,,0833.2,5.00,0.00,22.4,20.5,00.0,30.9,23.8,07.8,0000.0,0003.19,0004.59,0002.84
2023-04-06 07:37:00,,0833.2,5.02,0.00,22.4,21.2,00.0,30.8,24.1,07.8,0000.0,0003.18,0004.94,0002.84
2023-04-06 07:38:00,,0833.2,5.01,0.00,22.6,22.3,00.0,30.8,24.5,07.7,0000.0,0003.19,0004.97,0002.84
2023-04-06 07:39:00,,0833.2,5.00,0.00,22.7,23.1,00.0,30.8,24.7,07.7,0000.0,0003.17,0004.97,0002.81
2023-04-06 07:40:00,,0833.2,4.99,0.00,22.7,22.9,00.0,30.9,24.5,07.3,0000.0,0003.10,0004.78,0002.74
2023-04-06 07:41:00,,0833.2,5.00,0.00,22.7,22.5,00.0,30.9,24.4,07.0,0000.0,0003.03,0004.72,0002.65
2023-04-06 07:42:00,,0833.2,5.00,0.00,22.7,22.1,00.0,30.9,24.2,06.8,0000.0,0002.92,0004.58,0002.53
2023-04-06 07:43:00,,0833.2,5.01,0.00,22.7,21.8,00.0,30.9,24.2,06.8,0000.0,0002.80,0004.40,0002.43
2023-04-06 07:44:00,,0833.2,5.01,0.00,22.6,21.5,00.0,31.0,24.1,07.0,0000.0,0002.67,0004.20,0002.33
2023-04-06 07:45:00,,0833.2,4.99,0.00,22.6,21.3,00.0,31.0,24.0,06.9,0000.0,0002.57,0004.15,0002.24
2023-04-06 07:46:00,,0833.2,5.01,0.00,22.6,21.1,00.0,30.9,24.0,06.7,0000.0,0002.44,0004.06,0002.12
2023-04-06 07:47:00,,0833.2,5.01,0.00,22.5,21.0,00.0,30.9,23.9,06.6,0000.0,0002.34,0003.90,0002.01
2023-04-06 07:48:00,,0833.1,5.00,0.00,22.5,20.8,00.0,30.9,23.8,06.6,0000.0,0002.21,0003.07,0001.91
2023-04-06 07:49:00,,0833.2,4.98,0.00,22.4,20.6,00.0,30.9,23.7,06.5,0000.0,0002.08,0002.84,0001.79
2023-04-06 07:50:00,,0833.2,5.00,0.00,22.4,20.4,00.0,30.9,23.6,06.8,0000.0,0002.03,0002.79,0001.69
2023-04-06 07:51:00,,0833.2,5.01,0.00,22.4,20.7,00.0,30.8,23.9,06.7,0000.0,0001.97,0002.77,0001.61
2023-04-06 07:52:00,,0833.2,5.00,0.00,22.5,21.8,00.0,30.8,24.3,06.7,0000.0,0001.92,0002.69,0001.59
2023-04-06 07:53:00,,0833.3,5.00,0.00,22.6,22.8,00.0,30.8,24.6,06.6,0000.0,0001.87,0002.61,0001.57
2023-04-06 07:54:00,,0833.2,4.98,0.00,22.7,23.0,00.0,30.8,24.5,06.9,0000.0,0001.87,0002.58,0001.58
2023-04-06 07:55:00,,0833.3,4.99,0.00,22.7,22.7,00.0,30.9,24.4,07.4,0000.0,0001.94,0002.71,0001.63
2023-04-06 07:56:00,,0833.3,5.00,0.00,22.7,22.4,00.0,30.9,24.3,07.2,0000.0,0001.99,0002.77,0001.65
2023-04-06 07:57:00,,0833.3,5.01,0.00,22.7,22.1,00.0,31.0,24.2,07.4,0000.0,0002.02,0002.74,0001.70
2023-04-06 07:58:00,,0833.2,5.00,0.00,22.6,21.9,00.0,31.0,24.2,07.6,0000.0,0002.08,0002.71,0001.76
2023-04-06 07:59:00,,0833.2,4.99,0.00,22.6,21.7,00.0,31.0,24.1,08.4,0000.0,0002.20,0002.85,0001.87
